When you browse on this site, cookies collect data to enhance your experience and personalize the content and advertising you see.
Visit our Privacy Policy to learn more. By continuing to use the site, you agree to this use of cookies and data.
  • En España
  • Lista de países
  • Para 7 días
  • Temperatura del agua
  • El tiempo en el mapa
  • Informadores
  • user-avatar
    Iniciar sesión

    Tiempo cada hora Chervonyi Kut

    Hoy, 21 Septiembre, Sábado

    Tiempo Temperatura Precipitaciones Viento Presión Humedad
    00:00 +7°C° 0 mm 3 mps 760 mmHg 74%
    01:00 +7°C° 0 mm 3 mps 760 mmHg 76%
    02:00 +5°C° 0 mm 3 mps 761 mmHg 77%
    03:00 +5°C° 0 mm 4 mps 761 mmHg 78%
    04:00 +5°C° 0 mm 4 mps 761 mmHg 78%
    05:00 +4°C° 0 mm 4 mps 761 mmHg 79%
    06:00 +6°C° 0 mm 5 mps 761 mmHg 73%
    07:00 +7°C° 0 mm 5 mps 762 mmHg 66%
    08:00 +8°C° 0 mm 6 mps 762 mmHg 59%
    09:00 +10°C° 0 mm 6 mps 762 mmHg 52%
    10:00 +11°C° 0 mm 6 mps 762 mmHg 44%
    11:00 +13°C° 0 mm 6 mps 762 mmHg 37%
    12:00 +14°C° 0 mm 6 mps 762 mmHg 34%
    13:00 +15°C° 0 mm 6 mps 762 mmHg 31%
    14:00 +15°C° 0 mm 6 mps 762 mmHg 29%
    15:00 +15°C° 0 mm 5 mps 762 mmHg 30%
    16:00 +15°C° 0 mm 5 mps 762 mmHg 31%
    17:00 +15°C° 0 mm 4 mps 761 mmHg 32%
    18:00 +13°C° 0 mm 4 mps 761 mmHg 35%
    19:00 +12°C° 0 mm 3 mps 761 mmHg 39%
    20:00 +11°C° 0 mm 3 mps 761 mmHg 43%
    21:00 +11°C° 0 mm 3 mps 761 mmHg 46%
    22:00 +11°C° 0 mm 3 mps 761 mmHg 49%
    23:00 +11°C° 0 mm 4 mps 761 mmHg 51%

    Mañana, 22 Septiembre, Domingo

    Tiempo Temperatura Precipitaciones Viento Presión Humedad
    00:00 +12°C° 0 mm 4 mps 761 mmHg 51%
    01:00 +12°C° 0 mm 5 mps 761 mmHg 52%
    02:00 +13°C° 0 mm 5 mps 760 mmHg 52%
    03:00 +13°C° 0 mm 5 mps 760 mmHg 52%
    04:00 +13°C° 0 mm 5 mps 760 mmHg 51%
    05:00 +13°C° 0 mm 6 mps 760 mmHg 51%
    06:00 +14°C° 0 mm 6 mps 760 mmHg 49%
    07:00 +15°C° 0 mm 6 mps 760 mmHg 47%
    08:00 +15°C° 0 mm 6 mps 760 mmHg 44%
    09:00 +17°C° 0 mm 6 mps 760 mmHg 40%
    10:00 +20°C° 0 mm 6 mps 759 mmHg 36%
    11:00 +22°C° 0 mm 7 mps 759 mmHg 32%
    12:00 +22°C° 0 mm 6 mps 759 mmHg 32%
    13:00 +23°C° 0 mm 6 mps 758 mmHg 31%
    14:00 +24°C° 0 mm 6 mps 758 mmHg 30%
    15:00 +23°C° 0 mm 6 mps 757 mmHg 32%
    16:00 +23°C° 0 mm 5 mps 757 mmHg 33%
    17:00 +22°C° 0 mm 4 mps 756 mmHg 35%
    18:00 +21°C° 0 mm 4 mps 756 mmHg 39%
    19:00 +19°C° 0 mm 3 mps 757 mmHg 44%
    20:00 +17°C° 0 mm 3 mps 757 mmHg 49%
    21:00 +16°C° 0 mm 2 mps 757 mmHg 52%
    22:00 +16°C° 0 mm 2 mps 757 mmHg 54%
    23:00 +15°C° 0 mm 2 mps 757 mmHg 56%

    Pasado mañana, 23 Septiembre, Lunes

    Tiempo Temperatura Precipitaciones Viento Presión Humedad
    00:00 +15°C° 0 mm 2 mps 757 mmHg 59%
    01:00 +14°C° 0 mm 2 mps 757 mmHg 61%
    02:00 +14°C° 0 mm 2 mps 757 mmHg 64%
    03:00 +13°C° 0 mm 2 mps 757 mmHg 67%
    04:00 +13°C° 0 mm 1 mps 757 mmHg 70%
    05:00 +13°C° 0 mm 1 mps 757 mmHg 73%
    06:00 +14°C° 0 mm 1 mps 757 mmHg 69%
    07:00 +15°C° 0 mm 1 mps 757 mmHg 65%
    08:00 +17°C° 0 mm 2 mps 757 mmHg 60%
    09:00 +20°C° 0 mm 1 mps 757 mmHg 55%
    10:00 +21°C° 0 mm 1 mps 757 mmHg 49%
    11:00 +23°C° 0 mm 1 mps 757 mmHg 43%
    12:00 +24°C° 0 mm 1 mps 757 mmHg 40%
    13:00 +25°C° 0 mm 1 mps 757 mmHg 37%
    14:00 +26°C° 0 mm 1 mps 756 mmHg 34%
    15:00 +25°C° 0 mm 1 mps 756 mmHg 36%
    16:00 +25°C° 0 mm 2 mps 756 mmHg 38%
    17:00 +24°C° 0 mm 3 mps 756 mmHg 39%
    18:00 +21°C° 0 mm 3 mps 756 mmHg 47%
    19:00 +19°C° 0 mm 4 mps 756 mmHg 54%
    20:00 +16°C° 0 mm 5 mps 757 mmHg 62%
    21:00 +16°C° 0 mm 5 mps 757 mmHg 64%
    22:00 +15°C° 0 mm 4 mps 757 mmHg 67%
    23:00 +14°C° 0 mm 4 mps 757 mmHg 69%

    24 Septiembre, Martes

    Tiempo Temperatura Precipitaciones Viento Presión Humedad
    00:00 +14°C° 0 mm 4 mps 757 mmHg 72%
    01:00 +13°C° 0 mm 3 mps 757 mmHg 75%
    02:00 +12°C° 0 mm 3 mps 757 mmHg 78%
    03:00 +12°C° 0 mm 3 mps 757 mmHg 80%
    04:00 +12°C° 0 mm 3 mps 757 mmHg 82%
    05:00 +12°C° 0 mm 2 mps 757 mmHg 84%
    06:00 +14°C° 0 mm 2 mps 757 mmHg 78%
    07:00 +15°C° 0 mm 2 mps 757 mmHg 73%
    08:00 +16°C° 0 mm 3 mps 757 mmHg 67%
    09:00 +18°C° 0 mm 3 mps 757 mmHg 59%
    10:00 +20°C° 0 mm 3 mps 756 mmHg 51%
    11:00 +22°C° 0 mm 3 mps 756 mmHg 43%
    12:00 +24°C° 0 mm 3 mps 756 mmHg 41%
    13:00 +25°C° 0 mm 3 mps 755 mmHg 38%
    14:00 +26°C° 0 mm 3 mps 755 mmHg 35%
    15:00 +25°C° 0 mm 3 mps 755 mmHg 37%
    16:00 +24°C° 0 mm 3 mps 755 mmHg 40%
    17:00 +22°C° 0 mm 4 mps 754 mmHg 42%
    18:00 +21°C° 0 mm 4 mps 754 mmHg 48%
    19:00 +19°C° 0 mm 3 mps 755 mmHg 55%
    20:00 +18°C° 0 mm 3 mps 755 mmHg 61%
    21:00 +17°C° 0 mm 3 mps 755 mmHg 66%
    22:00 +16°C° 0 mm 3 mps 755 mmHg 70%
    23:00 +15°C° 0 mm 2 mps 755 mmHg 75%

    25 Septiembre, Miércoles

    Tiempo Temperatura Precipitaciones Viento Presión Humedad
    00:00 +15°C° 0 mm 2 mps 755 mmHg 77%
    01:00 +15°C° 0 mm 1 mps 755 mmHg 79%
    02:00 +14°C° 0 mm 1 mps 755 mmHg 80%
    03:00 +14°C° 0 mm 1 mps 755 mmHg 81%
    04:00 +14°C° 0 mm 1 mps 755 mmHg 81%
    05:00 +13°C° 0 mm 1 mps 755 mmHg 82%
    06:00 +15°C° 0 mm 1 mps 755 mmHg 75%
    07:00 +16°C° 0 mm 1 mps 755 mmHg 69%
    08:00 +19°C° 0 mm 1 mps 755 mmHg 62%
    09:00 +20°C° 0 mm 2 mps 755 mmHg 53%
    10:00 +22°C° 0 mm 3 mps 755 mmHg 44%
    11:00 +25°C° 0 mm 3 mps 755 mmHg 35%
    12:00 +25°C° 0 mm 4 mps 755 mmHg 35%
    13:00 +25°C° 0 mm 5 mps 754 mmHg 34%
    14:00 +26°C° 0 mm 5 mps 754 mmHg 34%
    15:00 +25°C° 0 mm 5 mps 754 mmHg 36%
    16:00 +23°C° 0 mm 5 mps 753 mmHg 37%
    17:00 +22°C° 0 mm 4 mps 753 mmHg 39%
    18:00 +21°C° 0 mm 4 mps 753 mmHg 43%
    19:00 +20°C° 0 mm 3 mps 754 mmHg 48%
    20:00 +18°C° 0 mm 3 mps 754 mmHg 52%
    21:00 +18°C° 0 mm 3 mps 754 mmHg 55%
    22:00 +17°C° 0 mm 3 mps 754 mmHg 58%
    23:00 +17°C° 0 mm 3 mps 754 mmHg 62%

    26 Septiembre, Jueves

    Tiempo Temperatura Precipitaciones Viento Presión Humedad
    00:00 +17°C° 0 mm 3 mps 753 mmHg 63%
    01:00 +17°C° 0 mm 2 mps 753 mmHg 65%
    02:00 +16°C° 0 mm 2 mps 753 mmHg 66%
    03:00 +16°C° 0 mm 2 mps 753 mmHg 68%
    04:00 +16°C° 0 mm 2 mps 753 mmHg 71%
    05:00 +15°C° 0 mm 2 mps 753 mmHg 73%
    06:00 +16°C° 0 mm 3 mps 753 mmHg 73%
    07:00 +17°C° 0 mm 3 mps 753 mmHg 73%
    08:00 +17°C° 0 mm 3 mps 753 mmHg 72%
    09:00 +17°C° 0.2 mm 2 mps 753 mmHg 74%
    10:00 +18°C° 0.2 mm 2 mps 753 mmHg 76%
    11:00 +19°C° 0.2 mm 1 mps 753 mmHg 78%
    12:00 +18°C° 0.7 mm 1 mps 753 mmHg 80%
    13:00 +18°C° 0.7 mm 1 mps 753 mmHg 83%
    14:00 +18°C° 0.7 mm 1 mps 752 mmHg 85%
    15:00 +17°C° 0.5 mm 2 mps 752 mmHg 85%
    16:00 +17°C° 0.5 mm 2 mps 752 mmHg 86%
    17:00 +17°C° 0.5 mm 3 mps 752 mmHg 86%
    18:00 +16°C° 0.1 mm 3 mps 753 mmHg 88%
    19:00 +16°C° 0.1 mm 3 mps 753 mmHg 90%
    20:00 +14°C° 0.1 mm 3 mps 753 mmHg 91%
    21:00 +14°C° 0 mm 3 mps 753 mmHg 90%
    22:00 +14°C° 0 mm 4 mps 754 mmHg 89%
    23:00 +14°C° 0 mm 4 mps 754 mmHg 88%
    Mostrar más